Parker Ford, PA

3:14 PM EDT on September 26, 2016 (GMT -0400)
Pottstown Limerick

Weather History for KPTW - April, 2013

Change the Weather History Date:

Saturday, April 13, 2013

  Actual Average (KRDG) Record (KRDG)
Temperature  
Mean Temperature 49 °F 51 °F  
Max Temperature 60 °F 62 °F 87 °F (1938)
Min Temperature 39 °F 40 °F 22 °F (1975)
Degree Days  
Heating Degree Days 16 15  
Month to date heating degree days 213  
Since 1 July heating degree days 4998  
Cooling Degree Days 0 0  
Month to date cooling degree days 0  
Year to date cooling degree days 0  
Moisture  
Dew Point 38 °F    
Average Humidity 74    
Maximum Humidity 100    
Minimum Humidity 41    
Precipitation  
Precipitation 0.00 in 0.13 in 1.23 in (1961)
Month to date precipitation 1.72  
Year to date precipitation 10.73  
Sea Level Pressure  
Sea Level Pressure 29.87 in    
Wind  
Wind Speed 4 mph (NW)    
Max Wind Speed 13 mph    
Max Gust Speed 23 mph    
Visibility 8 miles    
Events      
T = Trace of Precipitation, MM = Missing Value Source: NWS Daily Summary

Daily Weather History Graph

Daily Weather History Graph

Search for Another Location

Airport or City:

Trip Planner

Search our weather history database for the weather conditions in past years. The results will help you decide how hot, cold, wet, or windy it might be!

Date:

Astronomy

Apr. 13, 2013 Rise Set
Actual Time 6:26 AM EDT 7:39 PM EDT
Civil Twilight 5:58 AM EDT 8:07 PM EDT
Nautical Twilight 5:25 AM EDT 8:40 PM EDT
Astronomical Twilight 4:50 AM EDT 9:16 PM EDT
Moon 8:16 AM EDT (4/13) 11:01 PM EDT (4/13)
Length of Visible Light 14h 08m
Length of Day
13h 12m
Waxing Crescent, 10% of the Moon is Illuminated
Apr 13
Waxing Crescent
Apr 18
First Quarter
Apr 25
Full
May 2
Last Quarter
May 9
New

Hourly Weather History & Observations

Time (EDT) Temp. Windchill Dew Point Humidity Pressure Visibility Wind Dir Wind Speed Gust Speed Precip Events Conditions
12:34 AM 44.6 °F 40.7 °F 42.8 °F 93% 29.79 in 10.0 mi NW 6.9 mph - N/A   Overcast
12:46 AM 44.6 °F 40.2 °F 42.8 °F 93% 29.81 in 10.0 mi NW 8.1 mph - N/A   Overcast
12:51 AM 44.6 °F 40.7 °F 42.8 °F 93% 29.81 in 10.0 mi NNW 6.9 mph - N/A   Overcast
12:54 AM 44.1 °F 40.1 °F 42.1 °F 93% 29.81 in 10.0 mi NW 6.9 mph - N/A   Overcast
1:33 AM 44.6 °F - 42.8 °F 93% 29.81 in 10.0 mi Calm Calm - N/A   Overcast
1:54 AM 44.1 °F - 42.1 °F 93% 29.81 in 10.0 mi Calm Calm - N/A   Mostly Cloudy
2:54 AM 44.1 °F - 43.0 °F 96% 29.82 in 10.0 mi Calm Calm - N/A   Overcast
3:54 AM 43.0 °F 41.3 °F 42.1 °F 97% 29.82 in 7.0 mi NNW 3.5 mph - N/A   Clear
4:22 AM 41.0 °F - 39.2 °F 93% 29.83 in 0.8 mi Calm Calm - N/A   Clear
4:32 AM 41.0 °F - 39.2 °F 93% 29.84 in 2.0 mi Calm Calm - N/A   Clear
4:39 AM 42.8 °F - 41.0 °F 93% 29.84 in 6.0 mi Calm Calm - N/A   Partly Cloudy
4:54 AM 42.1 °F - 41.0 °F 96% 29.85 in 5.0 mi Calm Calm - N/A   Partly Cloudy
5:37 AM 39.2 °F - 37.4 °F 93% 29.86 in 1.8 mi Calm Calm - N/A   Partly Cloudy
5:51 AM 39.2 °F - 37.4 °F 93% 29.86 in 2.5 mi Calm Calm - N/A   Mostly Cloudy
5:54 AM 39.0 °F - 39.0 °F 100% 29.86 in 3.0 mi Calm Calm - N/A   Mostly Cloudy
6:35 AM 39.2 °F - 39.2 °F 100% 29.86 in 2.0 mi Calm Calm - N/A   Mostly Cloudy
6:50 AM 39.2 °F - 37.4 °F 93% 29.86 in 3.0 mi Calm Calm - N/A   Partly Cloudy
6:54 AM 39.0 °F - 37.9 °F 96% 29.86 in 3.0 mi Calm Calm - N/A   Partly Cloudy
7:54 AM 45.0 °F - 42.1 °F 90% 29.90 in 10.0 mi Calm Calm - N/A   Clear
8:54 AM 50.0 °F - 36.0 °F 59% 29.92 in 10.0 mi WNW 11.5 mph - N/A   Clear
9:54 AM 51.1 °F - 32.0 °F 48% 29.93 in 10.0 mi NW 10.4 mph 23.0 mph N/A   Partly Cloudy
10:54 AM 52.0 °F - 34.0 °F 50% 29.93 in 10.0 mi WNW 9.2 mph 17.3 mph N/A   Mostly Cloudy
11:54 AM 54.0 °F - 34.0 °F 47% 29.92 in 10.0 mi NW 10.4 mph - N/A   Mostly Cloudy
12:54 PM 55.9 °F - 35.1 °F 45% 29.91 in 10.0 mi WNW 11.5 mph 18.4 mph N/A   Scattered Clouds
1:54 PM 57.0 °F - 34.0 °F 42% 29.90 in 10.0 mi West 12.7 mph 17.3 mph N/A   Mostly Cloudy
2:54 PM 55.0 °F - 33.1 °F 43% 29.90 in 10.0 mi WNW 6.9 mph - N/A   Overcast
3:54 PM 55.9 °F - 33.1 °F 42% 29.88 in 10.0 mi WSW 5.8 mph - N/A   Mostly Cloudy
4:54 PM 59.0 °F - 35.1 °F 41% 29.89 in 10.0 mi West 6.9 mph - N/A   Scattered Clouds
5:54 PM 59.0 °F - 35.1 °F 41% 29.88 in 10.0 mi WNW 4.6 mph - N/A   Scattered Clouds
6:54 PM 57.9 °F - 34.0 °F 41% 29.89 in 10.0 mi West 4.6 mph - N/A   Clear
7:54 PM 54.0 °F - 35.1 °F 49% 29.89 in 10.0 mi North 4.6 mph - N/A   Clear
8:54 PM 48.9 °F - 37.9 °F 66% 29.92 in 10.0 mi North 4.6 mph - N/A   Clear
9:54 PM 52.0 °F - 36.0 °F 54% 29.96 in 10.0 mi NNE 5.8 mph - N/A   Overcast
10:54 PM 52.0 °F - 35.1 °F 53% 29.98 in 10.0 mi NE 5.8 mph - N/A   Overcast
11:54 PM 48.0 °F - 36.0 °F 63% 29.99 in 10.0 mi Calm Calm - N/A   Mostly Cloudy